Regional Weather Roundup
Issued by NWS

Home | Current Version | Previous Version | Graphics & Text | Print | Product List | Glossary On
Versions: 1 2 3 4 5 6 7 8 9 10 11 12 13 14 15 16 17 18 19 20 21 22 23 24 25 26 27 28 29 30 31 32 33 34 35 36 37 38 39 40 41 42 43 44 45 46 47 48 49 50
000
ASUS43 KDTX 240801
RWRMI
MICHIGAN HOURLY REGIONAL WEATHER ROUNDUP
NATIONAL WEATHER SERVICE DETROIT/PONTIAC MI
400 AM EDT SUN JUL 24 2016

NOTE: "FAIR" INDICATES FEW OR NO CLOUDS BELOW 12,000 FEET WITH NO
SIGNIFICANT WEATHER AND/OR OBSTRUCTION TO VISIBILITY.

MIZ047>049-052>055-059>063-066>070-074>076-081>083-240900-
SOUTHEAST LOWER MICHIGAN

CITY           SKY/WX    TMP DP  RH WIND       PRES   REMARKS
ADRIAN         MOCLDY    75  72  90 CALM      29.99R
ALMA           LGT RAIN  76  67  74 S8        29.95F
ANN ARBOR      MOCLDY    74  67  78 CALM      29.99R
BAD AXE        MOCLDY    69  59  72 SE6       29.98F
CARO           CLOUDY    71  58  63 CALM      29.96F
DETROIT CITY   CLEAR     74  59  59 S3        29.98S
DETROIT        MOCLDY    77  61  57 E3        29.98F
FLINT          CLOUDY    77  60  55 S5        29.98S
GROSSE ILE     MOCLDY    76  67  75 CALM      29.97S
HOWELL         CLOUDY    76  58  54 SE6       29.99S

CITY           SKY/WX    TMP DP  RH WIND       PRES   REMARKS
JACKSON        CLOUDY    75  69  81 SE3       29.99S
LAMBERTVILLE   CLOUDY    75  69  79 CALM      29.98R
LANSING        CLOUDY    76  65  68 SE3       29.98F
LAPEER         FAIR      68  59  73 CALM      29.99F
MASON          CLOUDY    74  64  68 W5        29.99R
MONROE         CLOUDY    79  70  74 SE3       29.97R
MT. CLEMENS    PTCLDY    71  63  74 CALM      29.97R
PONTIAC        PTCLDY    72  63  73 CALM      29.99S
PORT HOPE        N/A     71  61  70 S7        29.96S
PORT HURON     CLOUDY    63  61  94 CALM      29.99S
TRI CITIES     CLOUDY    74  63  68 S6        29.96F
MIDLAND        MOCLDY    75  63  65 SE6       29.94F
TROY           PTCLDY    75  61  60 CALM      30.01S
SAGINAW HB     MOCLDY    72  59  64 S5        29.95F
$$
MIZ043>046-050>051-056>058-064>065-071>073-077>080-240900-
SOUTHWEST LOWER MICHIGAN

CITY           SKY/WX    TMP DP  RH WIND       PRES   REMARKS
BATTLE CREEK   HVY RAIN  71  71 100 SW12      30.03R FOG
BENTON HARBOR  TSTM      72  69  90 S8        29.95S
BIG RAPIDS     CLOUDY    74  71  91 S3        29.94S
COLDWATER      HVY RAIN  75  72  91 W28G35    30.02R
FREMONT        CLOUDY    73  73 100 SW5       29.94R
HOLLAND        CLOUDY    72  68  87 S8        29.95F
GRAND RAPIDS   LGT RAIN  73  68  84 S6        29.95F
IONIA          RAIN      73  67  82 S3        29.95F
KALAMAZOO      RAIN      73  69  87 SE5       29.99F FOG
LUDINGTON      CLOUDY    73  69  87 S7        29.91S
MARSHALL       CLOUDY    75  72  88 CALM      29.98S
MOUNT PLEASANT DRIZZLE   76  65  69 CALM      29.94S
MUSKEGON       CLOUDY    73  69  87 S8        29.94R
SOUTH HAVEN    LGT RAIN  72  72  98 CALM      29.96S
$$
MIZ016>042-240900-
NORTHERN LOWER MICHIGAN

CITY           SKY/WX    TMP DP  RH WIND       PRES   REMARKS
ALPENA         CLOUDY    67  59  75 S3        29.96S
BEAVER ISLAND  CLOUDY    73  64  75 S5        29.89R
BELLAIRE       CLOUDY    76  61  59 S3        29.90S
CADILLAC       CLOUDY    74  65  73 S7        29.94S
CHARLEVOIX     DRIZZLE   74  60  61 SE8       29.91F
FRANKFORT      CLOUDY    74  69  83 S6        29.91R
GAYLORD        CLOUDY    73  57  57 S9G18     29.95F
GRAYLING       CLOUDY    72  61  68 SE5       29.95F
HARBOR SPRINGS CLOUDY    74  59  60 NE5       29.90S
HOUGHTON LAKE  CLOUDY    72  61  68 SE8       29.95F
MANISTEE       CLOUDY    74  70  87 S5        29.91R
OSCODA         CLOUDY    65  60  84 CALM      29.96S
PELLSTON       LGT RAIN  73  58  59 SE7       29.90F
ROGERS CITY    CLOUDY    71  56  60 S8        29.94S
TRAVERSE CITY  CLOUDY    76  65  68 S3        29.88S
$$
MIZ007>008-015-240900-
EASTERN UPPER MICHIGAN

CITY           SKY/WX    TMP DP  RH WIND       PRES   REMARKS
KINROSS        CLOUDY    70  60  70 SE8       29.92F
MACKINAC ISLAN CLOUDY    74  55  51 SE7       29.90F
NEWBERRY       CLOUDY    71  61  70 SE6       29.89S
S. S. MARIE    CLOUDY    69  64  84 CALM      29.92S
$$
MIZ004>006-011>014-085-240900-
CENTRAL UPPER MICHIGAN

CITY           SKY/WX    TMP DP  RH WIND       PRES   REMARKS
ESCANABA       CLOUDY    68  64  88 CALM      29.86S
MENOMINEE      CLOUDY    73  71  93 MISG        N/A
SAWYER-GWINN   RAIN      66  65  95 S10       29.88F
$$
MIZ001>003-009>011-084-240900-
WESTERN UPPER MICHIGAN

CITY           SKY/WX    TMP DP  RH WIND       PRES   REMARKS
IRON MOUNTAIN  CLOUDY    69  67  93 SE5       29.84F
HOUGHTON       LGT RAIN  66  64  93 E6        29.81F FOG
COPPER HARBOR    N/A     67  66  97 SW9G20    29.82F
IRONWOOD       CLOUDY    70  66  88 S9        29.79S
$$

ABBREVIATIONS USED IN REMARKS
   TC - TEMPERATURE IN CELSIUS
  WCI - WIND CHILL INDEX
   HX - HEAT INDEX
  VSB - VISIBILITY




USA.gov is the U.S. government's official web portal to all federal, state and local government web resources and services.